[[{"header":{"parameterUnit":"m.s-1","parameterCategory":1,"la1":30.2991,"la2":30.254,"lo1":-89.0895,"lo2":-89.0444,"dy":0.0017,"dx":0.0017,"nx":28,"ny":28,"refTime":"2025-07-31T03:00:00:Z","depth":0,"parameterNumber":2,"parameterNumberName":"U-component_of_WINDS"},"data":[0,0,0,0,0,0,0,0,0,0,0,0,0,0,0,0,0,0,0,0,0,0,0,0,0,0,0,0,0,0,0,0,0,0,0,0,0,0,0,0,0,0,0,0,0,0,0,0,0,0,0,0,0,0,0,0,0,0,4.4011,4.4013,0,4.4243,4.4246,4.4249,4.4285,4.4283,4.4281,4.4279,4.4514,4.4522,4.453,0,0,0,0,0,0,0,0,0,0,0,0,0,4.3597,4.3605,4.4011,4.4014,4.4016,4.4243,4.4246,4.4249,4.4286,4.4283,4.4281,4.4278,4.4512,4.4521,4.4531,0,0,0,0,0,0,0,0,0,0,0,0,0,4.3798,4.3607,4.401,4.4062,4.4069,4.4242,4.4246,4.425,4.4286,4.4283,4.428,4.4277,4.4508,4.452,4.4532,4.4669,0,0,4.457,4.4575,0,0,0,0,0,0,0,0,4.3786,4.3813,4.4052,4.4059,4.4067,4.4232,4.4186,4.439,4.4287,4.4204,4.4279,4.4276,4.4423,4.4442,4.4492,4.468,4.469,4.4571,4.4578,4.4583,4.4587,0,0,0,0,0,0,0,4.3772,4.3803,4.4103,4.4055,4.4064,4.4073,4.4099,4.4225,4.4327,4.4211,4.4214,4.4241,4.4426,4.448,4.4498,4.4693,4.457,4.4581,4.4589,4.4594,4.5008,4.5012,0,0,0,0,0,0,4.3749,4.3791,4.4095,4.411,4.3916,4.4083,4.4111,4.4182,4.4326,4.4345,4.4244,4.4242,4.4461,4.4483,4.4506,4.4677,4.4583,4.4595,4.4602,4.5004,4.5009,4.5013,0,0,0,0,0,0,4.374,4.3776,4.4086,4.3952,4.3992,4.4094,4.4173,4.4188,4.4242,4.4351,4.4369,4.428,4.4459,4.4489,4.4629,4.4686,4.46,4.4611,4.5,4.5006,4.5011,4.5019,0,0,0,0,0,0,4.3728,4.3773,4.3826,4.3953,4.3999,4.4205,4.4176,4.4195,4.4264,4.4264,4.439,4.4408,4.4459,4.4611,4.4641,4.4701,4.4621,4.4995,4.5003,4.5009,4.5014,4.5024,4.5033,0,0,0,0,0,4.3714,4.3817,4.3828,4.3865,4.4067,4.4208,4.4235,4.4292,4.4268,4.4322,4.4393,4.4404,4.4675,4.4625,4.4659,4.4724,4.4992,4.5001,4.5009,4.501,4.5022,4.5033,0,0,0,0,0,0,4.3692,4.3835,4.3848,4.3996,4.409,4.4214,4.4284,4.4303,4.4405,4.44,4.4467,4.4495,4.4633,4.4692,4.4634,4.4865,4.4832,4.4847,4.4821,4.4833,4.4842,4.4825,4.4631,0,0,0,0,0,4.3705,4.3809,4.3927,4.4047,4.4093,4.4181,4.4244,4.4281,4.438,4.442,4.45,4.4595,4.4703,4.4771,4.4876,4.5024,4.5052,4.5085,4.5095,4.5102,4.5114,4.5199,4.5216,4.504,4.504,4.504,0,0,4.3732,4.3823,4.3884,4.4045,4.4122,4.4227,4.4213,4.4325,4.4404,4.4436,4.4574,4.4637,4.4748,4.4893,4.4961,4.4947,4.517,4.5112,4.5117,4.5126,4.5209,4.5226,4.5241,4.5046,4.5045,4.5044,0,0,4.3836,4.3914,4.4024,4.4102,4.422,4.4278,4.4304,4.4426,4.447,4.461,4.4637,4.4732,4.4914,4.4993,4.5056,4.5194,4.5208,4.5226,4.5274,4.5356,4.537,4.5382,4.5432,4.5449,4.5238,4.5238,4.5238,0,4.3854,4.4015,4.4077,4.4189,4.4259,4.4296,4.4407,4.448,4.4625,4.4673,4.4655,4.4887,4.4964,4.513,4.5163,4.5214,4.5246,4.5211,4.5363,4.5376,4.5389,4.5437,4.5456,4.5239,4.5239,4.5239,4.5239,0,4.4032,4.4144,4.4218,4.4359,4.4438,4.4549,4.4628,4.47,4.4731,4.4791,4.4934,4.5029,4.5154,4.5196,4.5226,4.5367,4.5355,4.535,4.5317,4.5406,4.5453,4.5472,4.5241,4.5241,4.5241,4.524,0,0,4.4126,4.4304,4.433,4.4396,4.453,4.4617,4.473,4.4854,4.4916,4.5015,4.5112,4.5268,4.5265,4.5337,4.5377,4.5449,4.5554,4.5436,4.5439,4.5455,4.5716,4.5719,4.5739,4.5565,4.5568,4.5571,4.5707,0,4.4246,4.445,4.4511,4.4682,4.4787,4.4825,4.4924,4.5016,4.5076,4.5173,4.5239,4.5349,4.5336,4.538,4.5453,4.5525,4.5607,4.5516,4.5656,4.566,4.5626,4.5764,4.5767,4.589,4.5725,4.5728,4.5731,0,4.4412,4.4518,4.47,4.4824,4.487,4.4957,4.5078,4.517,4.5277,4.5315,4.5398,4.5433,4.5553,4.5515,4.5682,4.5619,4.568,4.5724,4.573,4.5745,4.57,4.5782,4.593,4.5949,4.576,4.5758,4.5755,0,4.4464,4.4651,4.4785,4.484,4.4987,4.5048,4.5112,4.5217,4.5288,4.5393,4.5441,4.5557,4.5621,4.5711,4.5777,4.5743,4.5939,4.5905,4.5974,4.5973,4.6013,4.601,4.6173,4.6052,4.6052,4.6051,4.6051,0,4.4591,4.4701,4.4811,4.4893,4.5018,4.5087,4.5209,4.5275,4.5368,4.5464,4.5503,4.5592,4.5674,4.5774,4.5826,4.5957,4.5985,4.602,4.6033,4.6017,4.6012,4.6057,4.605,4.6057,4.6055,4.6054,4.6054,0,4.4669,4.4747,4.4896,4.5024,4.5059,4.5146,4.5256,4.5337,4.54,4.5521,4.5553,4.5651,4.5771,4.5846,4.5998,4.6033,4.6178,4.6187,4.6142,4.6148,4.6213,4.6206,4.6411,4.6441,4.6299,4.63,4.6302,0,4.4745,4.4832,4.497,4.5038,4.5103,4.5212,4.5286,4.5358,4.5434,4.5564,4.563,4.5754,4.5856,4.6047,4.6131,4.6248,4.6261,4.6324,4.6278,4.626,4.6263,4.6257,4.6266,4.6332,4.6333,4.6334,4.6335,0,4.4873,4.4908,4.5014,4.5134,4.5222,4.532,4.5418,4.5471,4.556,4.5643,4.5768,4.5847,4.6004,4.6127,4.6252,4.6317,4.6341,4.6349,4.6371,4.6356,4.6326,4.6344,4.6163,4.6343,4.6343,4.6342,4.6341,4.6341,4.4953,4.5032,4.5143,4.526,4.5342,4.5433,4.5517,4.5592,4.5697,4.5831,4.5867,4.5998,4.6105,4.6276,4.6345,4.6448,4.6439,4.6471,4.6479,4.6486,4.6488,4.631,4.6471,4.6471,4.6471,4.6471,4.6471,0,4.5083,4.5157,4.5264,4.5401,4.5494,4.551,4.562,4.5697,4.5812,4.591,4.6011,4.6155,4.6275,4.637,4.6493,4.6557,4.6572,4.6587,4.6583,4.6598,4.6488,4.6457,4.6574,4.6574,4.6574,4.6574,4.6574,4.6574,4.5161,4.5297,4.5346,4.5523,4.5596,4.5725,4.5787,4.5872,4.5951,4.6111,4.6211,4.6273,4.6371,4.6502,4.6612,4.6637,4.6681,4.6695,4.6722,4.6617,4.6606,4.6595,4.6566,4.6704,4.6704,4.6823,4.6824,4.6825]},{"header":{"parameterUnit":"m.s-1","parameterCategory":1,"la1":30.2991,"la2":30.254,"lo1":-89.0895,"lo2":-89.0444,"dy":0.0017,"dx":0.0017,"nx":28,"ny":28,"refTime":"2025-07-31T03:00:00:Z","depth":0,"parameterNumber":3,"parameterNumberName":"V-component_of_WINDS"},"data":[0,0,0,0,0,0,0,0,0,0,0,0,0,0,0,0,0,0,0,0,0,0,0,0,0,0,0,0,0,0,0,0,0,0,0,0,0,0,0,0,0,0,0,0,0,0,0,0,0,0,0,0,0,0,0,0,0,0,-0.4486,-0.4482,0,-0.4137,-0.4133,-0.4129,-0.392,-0.3919,-0.3918,-0.3917,-0.3555,-0.3546,-0.3538,0,0,0,0,0,0,0,0,0,0,0,0,0,-0.4969,-0.4962,-0.4486,-0.4482,-0.4477,-0.4137,-0.4132,-0.4128,-0.392,-0.3919,-0.3918,-0.3916,-0.3558,-0.3547,-0.3537,0,0,0,0,0,0,0,0,0,0,0,0,0,-0.4704,-0.4959,-0.4487,-0.4333,-0.4315,-0.4138,-0.4132,-0.4126,-0.392,-0.3919,-0.3917,-0.3916,-0.3561,-0.3548,-0.3535,-0.3483,0,0,-0.3495,-0.349,0,0,0,0,0,0,0,0,-0.4719,-0.4686,-0.436,-0.4343,-0.4323,-0.407,-0.417,-0.391,-0.392,-0.407,-0.3917,-0.3915,-0.3727,-0.37,-0.3638,-0.3466,-0.345,-0.3494,-0.3486,-0.348,-0.3477,0,0,0,0,0,0,0,-0.4738,-0.47,-0.4347,-0.4355,-0.4333,-0.428,-0.4241,-0.412,-0.3911,-0.4057,-0.4041,-0.4003,-0.3717,-0.3651,-0.3628,-0.3445,-0.3494,-0.3483,-0.3475,-0.347,-0.3215,-0.3216,0,0,0,0,0,0,-0.4781,-0.4717,-0.4359,-0.4337,-0.4522,-0.4273,-0.4228,-0.4153,-0.3911,-0.3873,-0.4004,-0.3994,-0.3674,-0.3643,-0.3614,-0.3539,-0.3481,-0.3468,-0.3461,-0.3214,-0.3215,-0.3216,0,0,0,0,0,0,-0.4792,-0.4751,-0.4373,-0.4522,-0.447,-0.4266,-0.4183,-0.4147,-0.4081,-0.3872,-0.3833,-0.3976,-0.3672,-0.3633,-0.3518,-0.3523,-0.3462,-0.345,-0.3213,-0.3214,-0.3216,-0.3387,0,0,0,0,0,0,-0.4807,-0.4757,-0.4735,-0.4524,-0.4463,-0.4284,-0.4183,-0.4141,-0.4059,-0.4043,-0.3835,-0.3799,-0.3668,-0.3539,-0.3505,-0.3504,-0.344,-0.3211,-0.3213,-0.3215,-0.338,-0.3395,-0.3407,0,0,0,0,0,-0.4825,-0.4796,-0.4735,-0.4693,-0.4432,-0.4284,-0.425,-0.4101,-0.406,-0.4037,-0.3903,-0.3805,-0.3528,-0.3529,-0.3489,-0.3484,-0.321,-0.3213,-0.3215,-0.3374,-0.3392,-0.3407,0,0,0,0,0,0,-0.501,-0.4765,-0.4695,-0.4596,-0.4464,-0.425,-0.4215,-0.4124,-0.3998,-0.3987,-0.3806,-0.3761,-0.3665,-0.3562,-0.3567,-0.3422,-0.3358,-0.3353,-0.3493,-0.3508,-0.3521,-0.3548,-0.3429,0,0,0,0,0,-0.5041,-0.4942,-0.4732,-0.4665,-0.4602,-0.4422,-0.4351,-0.4248,-0.4102,-0.4044,-0.3902,-0.3763,-0.3644,-0.357,-0.3449,-0.3364,-0.3317,-0.3341,-0.3355,-0.3367,-0.3365,-0.3315,-0.3324,-0.3225,-0.3225,-0.3225,0,0,-0.51,-0.4954,-0.4902,-0.4699,-0.4584,-0.4486,-0.4375,-0.4275,-0.42,-0.4028,-0.3913,-0.3804,-0.3636,-0.3538,-0.3487,-0.3449,-0.3382,-0.337,-0.3381,-0.3372,-0.3318,-0.3328,-0.3337,-0.3226,-0.3226,-0.3226,0,0,-0.5159,-0.5039,-0.4971,-0.4859,-0.4687,-0.4566,-0.4551,-0.4351,-0.4273,-0.4154,-0.4024,-0.3932,-0.3731,-0.3618,-0.3535,-0.3555,-0.3461,-0.3521,-0.3591,-0.3544,-0.3552,-0.3558,-0.3568,-0.3573,-0.3519,-0.3519,-0.352,0,-0.5255,-0.5104,-0.4947,-0.4856,-0.4771,-0.4614,-0.4544,-0.4442,-0.4239,-0.4183,-0.4144,-0.3892,-0.3767,-0.3641,-0.3647,-0.3584,-0.3561,-0.3544,-0.3564,-0.3568,-0.3572,-0.3579,-0.3582,-0.3528,-0.3527,-0.3526,-0.3525,0,-0.5231,-0.5128,-0.5094,-0.4905,-0.4816,-0.4736,-0.4568,-0.4496,-0.4402,-0.4286,-0.4168,-0.4014,-0.3861,-0.3823,-0.3728,-0.3684,-0.3667,-0.3598,-0.3531,-0.3592,-0.3596,-0.3597,-0.354,-0.3537,-0.3535,-0.3532,0,0,-0.5396,-0.5125,-0.5115,-0.5029,-0.4828,-0.4745,-0.4658,-0.4511,-0.4454,-0.4319,-0.4243,-0.4078,-0.4015,-0.392,-0.3812,-0.3771,-0.38,-0.3707,-0.37,-0.3732,-0.3744,-0.3799,-0.3804,-0.3736,-0.3736,-0.3736,-0.3759,0,-0.5428,-0.5267,-0.5125,-0.5016,-0.492,-0.477,-0.4694,-0.4564,-0.4454,-0.4355,-0.4232,-0.412,-0.4043,-0.3986,-0.3939,-0.3807,-0.3801,-0.3803,-0.3664,-0.3661,-0.3713,-0.3806,-0.3862,-0.3891,-0.3759,-0.3759,-0.3759,0,-0.5443,-0.5319,-0.5201,-0.5014,-0.4968,-0.4903,-0.4758,-0.4665,-0.4514,-0.4437,-0.4334,-0.4221,-0.4123,-0.4066,-0.3928,-0.3933,-0.3868,-0.3795,-0.3792,-0.3775,-0.3716,-0.3793,-0.3896,-0.3902,-0.376,-0.376,-0.376,0,-0.5579,-0.5381,-0.5286,-0.5216,-0.4994,-0.4953,-0.4858,-0.4705,-0.4627,-0.4499,-0.4446,-0.4308,-0.4233,-0.4129,-0.3982,-0.3954,-0.3862,-0.3791,-0.3796,-0.38,-0.3784,-0.3787,-0.3881,-0.3739,-0.3739,-0.3739,-0.3739,0,-0.563,-0.5565,-0.5345,-0.5287,-0.5209,-0.5046,-0.4974,-0.4865,-0.4732,-0.4649,-0.4509,-0.4435,-0.4245,-0.4148,-0.4032,-0.3938,-0.3904,-0.3839,-0.3809,-0.3853,-0.3862,-0.3808,-0.3803,-0.374,-0.374,-0.374,-0.374,0,-0.5769,-0.5619,-0.5506,-0.5306,-0.5255,-0.5207,-0.5035,-0.4972,-0.4856,-0.4754,-0.472,-0.4536,-0.4415,-0.4258,-0.4086,-0.4008,-0.3929,-0.3881,-0.3981,-0.3964,-0.3978,-0.398,-0.4042,-0.4043,-0.3901,-0.3903,-0.3904,0,-0.5813,-0.576,-0.5556,-0.5492,-0.5403,-0.5301,-0.5221,-0.5058,-0.4981,-0.4806,-0.4766,-0.4634,-0.452,-0.4334,-0.4184,-0.4053,-0.4003,-0.4034,-0.3982,-0.4028,-0.4006,-0.4012,-0.4007,-0.4047,-0.405,-0.4052,-0.4053,0,-0.5907,-0.5837,-0.5728,-0.5594,-0.5504,-0.5389,-0.5269,-0.5224,-0.5037,-0.4957,-0.4832,-0.4745,-0.4571,-0.4443,-0.4293,-0.4193,-0.4093,-0.4071,-0.4065,-0.411,-0.4171,-0.4141,-0.4019,-0.407,-0.4068,-0.4067,-0.4066,-0.4066,-0.6001,-0.5948,-0.5797,-0.5681,-0.5574,-0.5466,-0.5399,-0.5275,-0.5169,-0.5017,-0.4927,-0.4807,-0.4658,-0.4446,-0.4352,-0.4255,-0.4216,-0.4208,-0.4206,-0.4207,-0.4222,-0.4186,-0.4227,-0.4226,-0.4225,-0.4225,-0.4224,0,-0.609,-0.5987,-0.5882,-0.572,-0.5629,-0.5544,-0.5407,-0.5336,-0.5233,-0.5104,-0.4996,-0.4855,-0.473,-0.4573,-0.4437,-0.439,-0.4341,-0.4361,-0.4363,-0.4343,-0.4263,-0.4283,-0.4403,-0.4403,-0.4403,-0.4403,-0.4403,-0.4403,-0.6126,-0.6033,-0.5945,-0.5798,-0.5693,-0.5577,-0.5506,-0.5406,-0.5302,-0.5151,-0.5048,-0.4947,-0.4806,-0.466,-0.4543,-0.4499,-0.4457,-0.4491,-0.4435,-0.4364,-0.4348,-0.4333,-0.435,-0.4483,-0.4483,-0.4521,-0.4522,-0.4522]}]]